Location: Plainartige
(45.6866°N, 1.7993°E)
Time: 09:54:59
(UTC+00:00)

POLYITAN 1 - Pass Details

Date: 07 July 2022
Orbit: 586 x 605 km, 98.0° (Epoch: 14 August)

Event Time Altitude Azimuth Distance (km) Brightness Sun altitude
Rises 00:42:04 0° 28° (NNE) 2,865 ? -21.0°
Reaches altitude 10° 00:44:47 10° 46° (NE) 1,959 ? -20.9°
Maximum altitude 00:47:51 19° 92° (E) 1,452 ? -20.8°
Enters shadow 00:49:22 16° 119° (ESE) 1,589 ? -20.7°
